DW4982 Weather Reports


Display with metric or nautical units.
time (UTC)temp
F
wind
direction
speed
MPH
gust
MPH
rain 1hr
in
rain 24hr
in
rain mn
in
humidity
%
barometer
mb
20260509224539 56 360 2.0 3.0 0.00 0.00 0.00 94 1013.7
20260509224031 57 5 3.0 3.0 0.00 0.00 0.00 94 1013.6
20260509223531 57 355 1.0 2.0 0.00 0.00 0.00 94 1013.6
20260509223045 57 355 2.0 2.0 0.00 0.00 0.00 94 1013.6
20260509222538 57 355 2.0 3.0 0.00 0.00 0.00 94 1013.6
20260509222041 57 14 3.0 3.0 0.00 0.00 0.00 94 1013.5
20260509221541 57 57 2.0 2.0 0.00 0.00 0.00 94 1013.5
20260509221028 57 20 1.0 2.0 0.00 0.00 0.53 94 1013.6
20260509220533 57 24 2.0 3.0 0.00 0.00 0.53 94 1013.6
20260509215539 57 15 2.0 2.0 0.00 0.00 0.53 94 1013.5
20260509215041 57 5 2.0 2.0 0.00 0.00 0.53 94 1013.6
20260509214542 57 355 0.0 2.0 0.00 0.00 0.53 94 1013.6
20260509214044 57 355 2.0 2.0 0.00 0.00 0.53 94 1013.7
20260509213541 57 360 2.0 2.0 0.00 0.00 0.53 94 1013.6
20260509213041 57 5 2.0 2.0 0.00 0.00 0.53 94 1013.6
20260509212546 57 34 1.0 1.0 0.00 0.00 0.53 94 1013.4
20260509212044 57 34 0.0 1.0 0.00 0.00 0.53 94 1013.5
20260509211547 57 34 1.0 1.0 0.00 0.00 0.53 94 1013.3
20260509211046 57 34 0.0 0.0 0.00 0.00 0.53 94 1013.3
20260509210529 57 34 0.0 1.0 0.00 0.00 0.53 94 1013.3
20260509210028 57 34 0.0 1.0 0.00 0.00 0.53 94 1013.3
20260509205539 57 34 0.0 1.0 0.00 0.00 0.53 94 1013.3
20260509205040 57 34 1.0 1.0 0.00 0.00 0.53 94 1013.3
20260509204540 58 34 0.0 0.0 0.00 0.00 0.53 94 1013.3
20260509203045 58 34 0.0 0.0 0.00 0.00 0.53 94 1013.1
20260509202037 58 34 2.0 2.0 0.00 0.00 0.53 94 1012.9
20260509201540 58 36 2.0 2.0 0.00 0.00 0.53 94 1012.9
20260509200040 58 52 1.0 3.0 0.00 0.00 0.53 94 1012.4
20260509195529 58 9 2.0 2.0 0.00 0.00 0.53 94 1012.4
20260509195028 58 26 2.0 2.0 0.00 0.00 0.53 94 1012.3
20260509194530 58 36 2.0 2.0 0.00 0.00 0.53 94 1012.3
20260509194047 58 36 1.0 2.0 0.01 0.00 0.53 94 1012.3
20260509193530 58 38 2.0 2.0 0.01 0.00 0.53 94 1012.1
20260509193030 58 51 1.0 3.0 0.01 0.00 0.53 94 1012.0
20260509192535 58 49 3.0 3.0 0.01 0.00 0.53 94 1011.9
20260509192032 58 81 2.0 2.0 0.01 0.00 0.53 94 1011.9
20260509191534 58 138 1.0 1.0 0.01 0.00 0.53 94 1011.9
20260509190531 58 147 1.0 1.0 0.01 0.00 0.53 94 1011.7
20260509190048 58 147 0.0 0.0 0.01 0.00 0.53 94 1011.6
20260509184037 58 150 1.0 2.0 0.01 0.00 0.53 94 1011.3
20260509183038 58 151 2.0 4.0 0.00 0.00 0.52 94 1011.2
20260509182545 58 150 2.0 2.0 0.00 0.00 0.52 93 1011.1
20260509182044 58 140 2.0 2.0 0.00 0.00 0.52 93 1011.0
20260509181532 58 138 2.0 2.0 0.00 0.00 0.52 93 1010.9
20260509181040 58 129 1.0 2.0 0.00 0.00 0.52 93 1010.9
20260509180029 58 139 2.0 2.0 0.01 0.00 0.52 93 1010.5
20260509175539 58 63 1.0 1.0 0.01 0.00 0.52 94 1010.4
20260509175035 58 328 0.0 3.0 0.02 0.00 0.52 93 1010.7
20260509174533 58 328 0.0 3.0 0.02 0.00 0.52 93 1010.6
20260509174035 58 346 1.0 1.0 0.02 0.00 0.52 93 1010.4
20260509173538 58 355 0.0 1.0 0.04 0.00 0.52 93 1010.4
20260509173031 58 355 0.0 1.0 0.05 0.00 0.52 93 1010.5
20260509172538 58 355 1.0 1.0 0.06 0.00 0.52 93 1010.6
20260509172032 58 355 1.0 1.0 0.08 0.00 0.52 93 1010.6
20260509170542 58 9 4.0 10.0 0.14 0.00 0.51 93 1010.5
20260509170036 58 320 7.0 10.0 0.17 0.00 0.51 92 1010.5
20260509165525 58 351 5.0 10.0 0.19 0.00 0.51 92 1010.5
20260509165045 58 319 5.0 7.0 0.20 0.00 0.50 92 1010.9
20260509164540 58 344 5.0 6.0 0.22 0.00 0.50 92 1011.2
20260509164044 58 342 3.0 5.0 0.22 0.00 0.50 92 1011.5
20260509163544 59 355 3.0 5.0 0.00 0.00 0.48 92 1011.7
20260509163037 59 355 3.0 5.0 0.00 0.00 0.47 92 1011.9
20260509162545 59 360 3.0 5.0 0.00 0.00 0.46 92 1012.0
20260509162043 59 101 1.0 2.0 0.00 0.00 0.44 92 1012.3
20260509161549 59 123 1.0 1.0 0.00 0.00 0.42 91 1012.5
20260509161030 59 123 0.0 3.0 0.00 0.00 0.39 92 1012.7
20260509160533 59 123 1.0 3.0 0.00 0.00 0.38 91 1012.9
20260509160033 59 138 0.0 3.0 0.00 0.00 0.34 91 1013.1
20260509155543 59 138 1.0 4.0 0.00 0.00 0.32 91 1013.1
20260509155045 59 136 2.0 4.0 0.00 0.00 0.31 91 1013.1
20260509154546 59 142 2.0 4.0 0.00 0.00 0.29 91 1013.1
20260509154042 59 199 1.0 2.0 0.00 0.00 0.28 91 1013.1